This demonstration page uses our WeatherBlox Daily Observations layout. Learn more.

Left ArrowRight Arrow

Hourly Observations for March 14, 2019

Temp ( °F °C ) Dew Point ( °F °C ) Humidity (%) Winds ( mph kmh ) Pressure ( in mb ) Visibility ( mi km ) Precip ( " mm )
12:52 am 00:52 Mostly Cloudy 52 11.1 45 7.2 77 77 SE 26 43 29.05 984 10 16 0.00 0.00
1:52 am 01:52 Cloudy 53 11.7 44 6.7 72 72 SE 28 44 29.02 983 10 16 0.00 0.00
2:52 am 02:52 Mostly Cloudy 51 10.6 44 6.7 77 77 SE 21 33 29.00 982 10 16 0.00 0.00
3:52 am 03:52 Cloudy 51 10.6 42 5.6 71 71 SSE 23 37 28.99 982 10 16 0.00 0.03
4:29 am 04:29 Cloudy 47 8.3 39 3.9 74 74 S 18 30 29.03 983 10 16 0.00 0.00
4:52 am 04:52 Cloudy 44 6.7 38 3.3 79 79 S 24 39 29.02 983 10 16 0.00 0.00
5:26 am 05:26 Cloudy with Light Rain 42 5.6 38 3.3 85 85 S 16 26 29.06 984 5 8 0.01 0.25
5:35 am 05:35 Cloudy with Light Rain 41 5 38 3.3 89 89 SSE 15 24 29.07 984 5 8 0.02 0.51
5:52 am 05:52 Cloudy with Light Rain 40 4.4 38 3.3 93 93 SSE 14 22 29.04 984 4 6 0.02 0.51
6:21 am 06:21 Cloudy with Light Rain 40 4.4 37 2.8 89 89 SSE 12 19 29.08 985 3 4 0.00 0.03
6:52 am 06:52 Cloudy with Light Rain 39 3.9 37 2.8 93 93 SE 8 13 29.06 984 3 4 0.00 0.03
7:52 am 07:52 Cloudy with Light Rain 39 3.9 37 2.8 93 93 Calm 29.09 985 3 4 0.03 0.76
8:00 am 08:00 Cloudy with Rain 39 3.9 37 2.8 93 93 Calm 29.12 986 3 4 0.01 0.25
8:05 am 08:05 Cloudy with Rain 39 3.9 37 2.8 93 93 Calm 29.13 987 2 2 0.02 0.51
8:16 am 08:16 Cloudy with Light Rain 38 3.3 36 2.2 93 93 WNW 13 20 29.14 987 2 3 0.04 1.02
8:17 am 08:17 Cloudy with Light Rain 38 3.3 35 1.7 89 89 WNW 13 20 29.14 987 2 3 0.04 1.02
8:30 am 08:30 Cloudy with Light Rain 38 3.3 34 1.1 86 86 NW 16 26 29.15 987 7 11 0.04 1.02
8:52 am 08:52 Cloudy with Light Rain 37 2.8 34 1.1 89 89 NW 16 26 29.14 987 5 8 0.06 1.52
9:38 am 09:38 Cloudy with Rain 37 2.8 33 0.6 86 86 NW 21 33 29.22 989 6 10 0.05 1.27
9:52 am 09:52 Cloudy with Light Rain 37 2.8 33 0.6 86 86 NW 21 33 29.19 989 6 10 0.07 1.78
10:52 am 10:52 Cloudy 37 2.8 32 0 82 82 NW 23 37 29.27 991 10 16 0.00 0.03
11:29 am 11:29 Cloudy 37 2.8 32 0 82 82 NW 25 41 29.35 994 10 16 0.00 0.00
11:52 am 11:52 Cloudy 37 2.8 31 -0.6 79 79 NW 25 41 29.34 994 10 16 0.00 0.00
12:52 pm 12:52 Cloudy 37 2.8 31 -0.6 79 79 NW 23 37 29.40 996 10 16 0.00 0.03
1:52 pm 13:52 Cloudy 37 2.8 31 -0.6 79 79 NNW 30 48 29.46 998 10 16 0.00 0.00
2:52 pm 14:52 Cloudy 38 3.3 31 -0.6 76 76 NNW 26 43 29.52 1000 10 16 0.00 0.00
3:52 pm 15:52 Cloudy 38 3.3 31 -0.6 76 76 NW 26 43 29.58 1002 10 16 0.00 0.00
4:52 pm 16:52 Cloudy with Light Rain 38 3.3 30 -1.1 73 73 NW 32 52 29.65 1004 10 16 0.00 0.03
5:52 pm 17:52 Cloudy with Light Rain 37 2.8 30 -1.1 76 76 NNW 26 43 29.72 1007 10 16 0.00 0.03
6:52 pm 18:52 Cloudy with Light Rain 36 2.2 30 -1.1 79 79 NW 30 48 29.77 1008 10 16 0.00 0.03
7:52 pm 19:52 Cloudy with Light Rain 35 1.7 30 -1.1 82 82 NW 23 37 29.84 1011 5 8 0.00 0.03
8:52 pm 20:52 Windy with Snow Likely 36 2.2 28 -2.2 73 73 NW 33 54 29.89 1012 3 5 0.00 0.03
9:52 pm 21:52 Cloudy 36 2.2 27 -2.8 70 70 NNW 31 50 29.93 1014 10 16 0.00 0.03
10:40 pm 22:40 Cloudy 36 2.2 26 -3.3 67 67 NW 29 46 30.00 1016 10 16 0.00 0.00
10:52 pm 22:52 Cloudy 35 1.7 26 -3.3 70 70 NNW 31 50 29.99 1016 10 16 0.00 0.00
11:52 pm 23:52 Mostly Cloudy 35 1.7 26 -3.3 70 70 NW 23 37 30.02 1017 10 16 0.00 0.00

Powered by AerisWeather